User: anonymous   Login
Location: Unspecified
(0.0000°N, 0.0000°E)
Time: 14:45:36
(UTC+00:00)
Language:

Oscar 15 - Orbit

View from above orbital plane
View from above orbital plane
View from above satellite
View from above satellite

Ground track
Ground track

The orbit data is extracted from the following two-line orbital elements,

1 20438U 90005C   17205.48472913 -.00000021 +00000-0 +89336-5 0  9992
2 20438 098.7139 153.2628 0010845 121.9538 350.5371 14.30992308435386
Epoch (UTC): 24 July 2017 11:38:00
Eccentricity: 0.0010845
inclination: 98.7139°
perigee height: 780 km
apogee height: 796 km
right ascension of ascending node: 153.2628°
argument of perigee: 121.9538°
revolutions per day: 14.30992308
mean anomaly at epoch: 350.5371°
orbit number at epoch: 43538

The dashed part of the orbit path shows where the satellite is in the earth's shadow,  

DLR